TimeEDT,TemperatureF,Dew PointF,Humidity,Sea Level PressureIn,VisibilityMPH,Wind Direction,Wind SpeedMPH,Gust SpeedMPH,PrecipitationIn,Events,Conditions,WindDirDegrees,DateUTC
12:54 AM,64.9,62.1,90,30.09,6.0,SE,8.1,-,0.00,Rain,Light Rain,140,2013-06-10 04:54:00
1:54 AM,64.0,62.1,93,30.07,7.0,SE,6.9,-,0.00,,Mostly Cloudy,140,2013-06-10 05:54:00
2:17 AM,64.4,60.8,88,30.10,7.0,SE,9.2,-,N/A,,Mostly Cloudy,130,2013-06-10 06:17:00
2:54 AM,64.0,61.0,90,30.05,7.0,SSE,8.1,-,N/A,,Mostly Cloudy,150,2013-06-10 06:54:00
3:31 AM,64.4,60.8,88,30.07,6.0,SE,6.9,-,0.00,Rain,Light Rain,140,2013-06-10 07:31:00
3:54 AM,64.0,62.1,93,30.03,5.0,SE,6.9,-,0.01,Rain,Light Rain,140,2013-06-10 07:54:00
4:08 AM,64.4,62.6,94,30.06,6.0,SE,6.9,-,0.00,Rain,Light Rain,140,2013-06-10 08:08:00
4:44 AM,62.6,60.8,94,30.05,5.0,SE,5.8,-,0.00,,Overcast,130,2013-06-10 08:44:00
4:51 AM,62.6,60.8,94,30.04,5.0,SE,11.5,-,0.00,,Overcast,140,2013-06-10 08:51:00
4:54 AM,63.0,61.0,93,30.01,5.0,SE,8.1,-,0.00,,Overcast,140,2013-06-10 08:54:00
5:54 AM,63.0,60.1,90,30.01,6.0,SSE,11.5,17.3,0.01,Rain,Light Rain,150,2013-06-10 09:54:00
6:54 AM,63.0,61.0,93,30.00,4.0,SE,8.1,-,0.03,Rain,Light Rain,140,2013-06-10 10:54:00
7:34 AM,62.6,60.8,94,30.02,2.5,SE,9.2,-,0.04,Rain,Rain,140,2013-06-10 11:34:00
7:54 AM,63.0,61.0,93,29.99,4.0,SE,10.4,-,0.07,Rain,Light Rain,140,2013-06-10 11:54:00
8:46 AM,64.4,60.8,88,30.01,10.0,SE,6.9,-,0.02,Rain,Light Rain,140,2013-06-10 12:46:00
8:54 AM,64.0,62.1,93,29.98,10.0,SE,10.4,17.3,0.02,Rain,Light Rain,140,2013-06-10 12:54:00
9:09 AM,62.6,60.8,94,30.00,10.0,SSE,12.7,18.4,0.00,Rain,Light Rain,150,2013-06-10 13:09:00
9:54 AM,64.0,62.1,93,29.96,10.0,SSE,12.7,19.6,0.01,Rain,Light Rain,150,2013-06-10 13:54:00
10:11 AM,64.4,62.6,94,29.99,9.0,SSE,10.4,21.9,0.00,Rain,Light Rain,150,2013-06-10 14:11:00
10:30 AM,64.4,62.6,94,29.98,10.0,SSE,10.4,-,0.01,Rain,Light Rain,150,2013-06-10 14:30:00
10:54 AM,64.0,62.1,93,29.95,7.0,SSE,11.5,-,0.01,Rain,Light Rain,150,2013-06-10 14:54:00
11:29 AM,64.4,62.6,94,29.97,3.0,SSE,12.7,19.6,0.00,Rain,Light Rain,150,2013-06-10 15:29:00
11:54 AM,66.0,63.0,90,29.93,10.0,SE,11.5,29.9,0.00,,Overcast,140,2013-06-10 15:54:00
12:02 PM,66.2,62.6,88,29.96,10.0,SE,13.8,29.9,N/A,,Overcast,140,2013-06-10 16:02:00
12:09 PM,66.2,62.6,88,29.95,10.0,SSE,15.0,21.9,N/A,,Overcast,160,2013-06-10 16:09:00
12:26 PM,66.2,62.6,88,29.95,10.0,SSE,13.8,20.7,N/A,,Overcast,160,2013-06-10 16:26:00
12:54 PM,66.9,64.0,90,29.91,10.0,SSE,12.7,19.6,0.00,Rain,Light Rain,150,2013-06-10 16:54:00
1:54 PM,71.1,64.9,81,29.87,10.0,SSE,15.0,20.7,0.00,,Mostly Cloudy,160,2013-06-10 17:54:00
2:30 PM,71.6,64.4,78,29.89,10.0,South,13.8,23.0,N/A,,Mostly Cloudy,170,2013-06-10 18:30:00
2:54 PM,73.0,64.0,73,29.84,10.0,South,17.3,24.2,N/A,,Scattered Clouds,170,2013-06-10 18:54:00
3:54 PM,71.1,64.0,78,29.82,10.0,South,15.0,20.7,N/A,,Overcast,170,2013-06-10 19:54:00
4:08 PM,66.2,60.8,83,29.88,10.0,WSW,13.8,24.2,N/A,,Overcast,240,2013-06-10 20:08:00
4:11 PM,66.2,60.8,83,29.88,1.2,WSW,20.7,28.8,0.10,Rain,Light Rain,250,2013-06-10 20:11:00
4:13 PM,64.4,60.8,88,29.88,0.8,WSW,18.4,28.8,0.19,Rain,Heavy Rain,240,2013-06-10 20:13:00
4:24 PM,62.6,60.8,94,29.87,0.8,SW,8.1,-,0.34,Rain,Heavy Rain,220,2013-06-10 20:24:00
4:29 PM,64.4,60.8,88,29.87,2.5,SW,6.9,-,0.34,Rain,Light Rain,220,2013-06-10 20:29:00
4:31 PM,64.4,60.8,88,29.87,5.0,SW,6.9,-,0.34,Rain,Light Rain,220,2013-06-10 20:31:00
4:54 PM,66.0,62.1,87,29.83,10.0,SSW,5.8,-,0.34,,Overcast,210,2013-06-10 20:54:00
5:54 PM,68.0,62.1,81,29.82,10.0,West,6.9,-,N/A,,Overcast,280,2013-06-10 21:54:00
6:54 PM,66.0,57.9,75,29.83,10.0,WSW,9.2,-,N/A,,Overcast,250,2013-06-10 22:54:00
7:54 PM,64.0,57.9,80,29.83,10.0,WSW,6.9,-,N/A,,Overcast,240,2013-06-10 23:54:00
8:54 PM,63.0,57.0,81,29.83,10.0,SW,5.8,-,N/A,,Mostly Cloudy,220,2013-06-11 00:54:00
9:54 PM,62.1,57.0,84,29.84,10.0,SW,8.1,-,N/A,,Clear,230,2013-06-11 01:54:00
10:54 PM,61.0,57.0,87,29.84,10.0,SW,6.9,-,N/A,,Clear,220,2013-06-11 02:54:00
11:17 PM,60.8,57.2,88,29.87,10.0,SW,6.9,-,N/A,,Mostly Cloudy,230,2013-06-11 03:17:00
11:29 PM,60.8,57.2,88,29.87,10.0,SW,5.8,-,N/A,,Mostly Cloudy,220,2013-06-11 03:29:00
11:46 PM,60.8,57.2,88,29.86,10.0,SSW,6.9,-,N/A,,Scattered Clouds,210,2013-06-11 03:46:00
11:54 PM,61.0,57.9,90,29.84,10.0,SSW,9.2,-,N/A,,Mostly Cloudy,210,2013-06-11 03:54:00